GFSWCAN_925_rhum_108.txt.gz
RH
84 97 86 94 90 94 91 97 96 99 97 89 100 95 90 88 96 99 96 88 94 100 59 71 57 73 53 48 57 53 49 48 50 60 50 52 65 41 64 89 48 49 52 54 48 53 73 60 54 76 87 74 79 76
91 96 95 89 91 93 95 100 100 100 100 96 95 95 91 88 98 97 92 80 82 96 63 54 50 48 48 44 51 46 42 46 49 44 33 39 55 60 60 69 60 84 92 87 89 91 76 71 83 77 77 78 81 77
94 96 96 97 100 98 98 95 93 94 92 88 88 86 78 74 82 92 90 78 78 62 59 53 53 45 41 48 46 40 33 39 47 50 68 51 55 46 64 69 60 57 57 80 79 76 75 73 70 66 70 73 72 74
96 96 100 98 99 99 92 90 88 84 84 84 76 64 69 78 87 89 98 68 73 73 81 57 42 42 38 38 40 44 42 42 40 48 59 61 57 54 75 58 59 46 49 69 88 80 76 68 70 73 74 71 72 70
94 99 98 100 97 92 81 80 72 62 66 75 84 86 84 97 88 86 92 83 78 79 66 57 42 38 36 35 35 36 38 47 43 42 56 61 48 53 52 54 60 51 88 70 84 67 77 81 70 70 75 77 72 66
95 98 100 98 92 87 85 74 62 70 72 72 78 79 73 72 63 94 99 64 62 72 51 63 43 42 39 38 37 38 35 34 29 36 38 42 49 54 66 73 59 53 61 59 84 73 80 76 69 62 70 65 60 60
95 98 100 86 83 82 74 62 65 73 80 72 67 66 62 61 86 80 78 63 58 62 81 62 53 45 41 37 38 39 35 39 35 31 33 34 41 48 62 70 58 60 67 70 68 72 78 70 75 63 61 58 57 56
97 99 95 80 76 73 65 62 70 72 70 62 56 64 66 65 75 67 61 53 58 63 57 59 64 53 45 45 52 43 40 38 44 40 36 33 38 37 68 77 62 67 71 67 66 58 62 57 54 54 55 53 54 55
99 99 84 79 71 69 62 68 70 73 62 58 52 56 68 67 49 57 42 44 58 56 56 57 64 68 49 52 49 45 40 66 39 45 38 36 57 61 63 63 70 73 70 73 62 56 54 53 52 52 50 51 54 56
100 94 83 78 70 65 63 74 69 58 53 54 59 60 88 64 52 45 63 63 59 41 44 58 52 70 52 61 60 53 46 50 59 47 46 54 65 52 49 54 58 62 63 60 69 68 60 56 54 52 51 49 51 54
98 99 84 73 70 68 65 67 63 56 43 55 65 80 63 57 61 42 69 58 52 51 41 48 50 61 44 68 60 43 51 49 51 61 50 62 57 62 51 57 58 58 63 61 54 57 55 53 57 56 56 54 56 57
99 98 87 82 73 76 69 64 54 53 58 55 58 55 59 50 54 65 62 51 51 46 51 59 52 51 47 39 56 48 47 52 64 54 57 55 79 67 68 77 73 71 67 64 57 60 59 57 56 58 59 64 87 88
91 87 83 83 83 75 54 47 52 48 60 63 47 51 51 55 79 70 76 57 69 64 66 67 79 60 48 56 71 59 82 74 57 73 65 84 76 82 91 80 79 73 69 70 66 66 63 63 63 69 92 94 90 93
81 88 87 78 73 60 44 56 60 60 62 47 61 85 82 80 66 81 88 86 77 75 71 80 86 84 67 87 70 75 79 66 73 71 87 81 84 98 93 85 92 94 99 98 88 86 88 93 98 96 94 93 96 99
90 99 86 65 49 52 49 46 55 60 54 63 60 80 80 82 85 96 87 83 86 74 72 73 70 63 71 80 72 67 74 72 64 95 92 86 90 97 98 97 97 96 94 95 92 94 95 96 94 97 98 96 92 83
82 76 72 57 58 49 52 59 56 56 53 67 76 81 85 88 96 99 100 99 76 70 67 61 79 79 78 67 69 67 66 74 96 92 94 91 94 95 95 91 92 92 91 93 94 94 95 94 93 94 99 91 80 83
76 73 66 55 50 46 50 52 53 55 65 71 93 99 100 100 100 100 97 82 64 73 94 54 72 64 57 58 61 61 87 95 87 92 89 90 92 96 96 96 97 97 94 94 95 94 94 95 97 88 79 80 75 79
78 74 54 52 59 51 56 50 52 55 80 90 84 99 96 98 100 100 96 82 75 56 55 71 62 67 71 64 85 95 91 90 90 80 91 94 94 94 96 94 96 96 94 93 91 91 94 87 65 54 56 61 68 73
73 66 53 49 57 52 50 54 53 70 85 78 79 78 83 95 84 77 74 71 58 51 55 59 71 70 83 95 97 93 88 85 91 88 94 92 88 89 89 88 88 89 89 87 81 79 72 53 48 51 54 55 58 64
60 52 48 56 60 41 55 62 54 63 85 79 71 76 77 82 78 90 76 62 61 62 57 59 84 96 100 98 91 90 78 83 85 90 94 92 89 87 86 83 79 81 80 75 68 60 50 50 51 51 53 57 65 67
57 59 58 59 49 49 53 61 72 63 64 80 69 72 74 69 78 82 78 68 69 58 60 79 100 100 97 93 73 76 75 69 74 78 81 86 84 82 79 77 80 74 72 68 60 53 53 58 57 59 68 81 79 84
57 55 56 52 55 54 63 62 64 58 64 65 66 66 82 86 84 83 66 70 67 81 87 88 92 90 87 77 72 68 74 75 69 71 71 77 82 82 78 82 75 76 72 67 60 65 66 63 72 78 89 88 85 83
54 50 52 49 76 72 78 62 71 64 75 72 67 68 72 74 73 57 69 62 77 83 76 66 74 76 86 74 72 73 69 62 66 70 76 73 75 79 80 81 76 80 77 71 70 74 86 81 85 97 87 86 94 90
58 67 92 81 70 84 72 72 56 63 63 65 65 69 73 73 67 68 69 65 92 73 69 76 69 67 70 72 70 70 67 69 81 79 73 78 85 83 84 80 83 81 76 73 81 94 89 89 97 92 88 92 86 83
60 90 87 83 70 71 70 67 72 59 71 70 74 68 76 70 74 67 67 86 74 86 77 74 76 80 86 90 86 82 70 68 77 78 76 77 77 85 85 83 86 82 84 92 93 95 92 96 96 91 93 91 85 88
70 88 74 70 75 66 61 67 67 72 66 72 72 73 72 74 73 74 70 94 80 82 92 90 89 85 83 78 89 76 69 66 73 81 71 81 79 83 84 87 88 95 96 87 94 93 96 94 95 92 91 89 76 84
67 76 63 61 55 51 67 66 55 62 70 70 67 76 74 76 74 79 80 75 83 87 81 96 93 93 90 86 80 75 74 81 78 74 74 81 82 88 84 82 86 87 87 94 95 94 92 96 94 94 97 89 82 80
63 64 76 73 67 61 76 71 73 70 65 51 62 71 71 72 92 84 92 88 92 91 89 88 93 96 94 93 94 95 96 91 88 94 95 98 100 99 97 87 85 84 92 96 93 94 94 96 97 93 89 90 92 88
75 71 67 76 78 76 75 76 73 63 63 66 78 80 76 74 86 85 88 93 94 91 91 90 97 99 100 99 94 93 96 91 84 86 85 88 89 98 97 99 98 97 96 97 98 96 96 95 96 96 94 93 97 95
74 74 72 70 76 73 86 94 97 93 73 86 81 65 61 85 96 96 92 92 89 89 90 88 98 97 95 95 95 99 97 97 97 85 85 87 87 95 97 98 98 100 98 98 95 98 97 96 95 91 97 99 100 100
78 81 74 66 68 91 95 89 88 86 88 87 87 90 86 97 98 96 93 94 91 92 95 89 95 95 94 92 92 88 94 99 96 99 97 92 91 93 96 97 96 98 96 94 96 97 96 97 97 96 95 96 96 96
82 79 72 69 81 88 85 85 80 82 79 86 81 85 85 88 84 95 100 99 96 94 95 94 92 94 95 96 94 95 92 93 99 100 100 98 96 96 97 97 97 95 97 99 99 96 93 93 92 92 97 95 92 97
86 84 86 83 79 81 82 86 78 78 85 81 83 87 86 89 93 92 99 100 100 100 99 99 98 99 98 97 98 98 99 96 100 100 100 96 95 97 96 97 98 96 99 97 94 92 92 92 93 91 92 94 92 93

GFSWCAN_925_rhum_111.txt.gz
RH
83 83 97 97 82 81 85 90 95 96 94 90 88 91 88 100 99 97 95 98 97 100 98 82 81 96 92 89 96 70 71 63 67 80 81 88 98 76 76 81 56 67 76 82 75 84 97 75 69 81 92 86 84 90
86 90 92 95 88 94 99 97 93 88 82 90 96 91 97 99 95 97 96 94 97 98 93 74 70 75 68 63 67 63 66 58 77 69 60 58 83 86 81 95 66 83 87 96 95 99 84 75 89 85 80 90 86 90
89 96 95 95 99 98 98 96 91 85 89 94 93 93 99 92 89 97 92 92 93 97 85 74 66 48 44 44 45 61 58 54 60 70 89 77 65 72 88 91 82 75 73 93 92 83 81 80 75 79 80 83 80 78
93 95 99 98 99 99 100 100 99 100 100 100 98 96 90 80 86 98 86 94 95 94 98 66 42 43 37 41 42 42 51 46 54 67 82 90 88 79 85 78 81 70 70 85 96 85 79 80 78 79 79 76 81 84
96 98 98 98 100 98 99 96 95 94 89 93 93 90 75 88 97 90 92 97 92 93 89 72 47 38 36 37 40 40 51 56 66 61 80 85 68 77 75 81 90 75 83 91 93 82 82 91 82 73 80 77 80 82
98 98 99 100 98 85 85 88 81 78 79 77 71 74 83 92 99 97 100 88 76 80 87 88 52 46 40 40 45 43 51 54 59 64 62 68 56 76 92 98 76 77 80 72 91 86 86 81 76 69 77 75 71 74
91 96 100 99 86 77 72 68 77 79 79 83 85 88 96 95 97 95 92 74 68 69 91 84 69 55 49 43 54 54 49 55 62 50 56 66 63 65 92 95 83 84 83 82 77 77 86 78 86 68 64 62 64 66
89 100 96 83 70 67 70 74 75 74 73 74 76 83 87 82 94 83 63 60 66 66 82 88 87 74 48 67 66 58 58 61 62 59 56 63 55 61 95 90 81 82 80 77 75 70 72 65 62 61 61 58 61 64
99 99 82 77 65 69 71 72 66 59 63 74 72 79 89 92 87 58 51 51 56 68 88 81 90 91 61 71 67 63 63 87 58 73 63 62 90 84 84 87 87 82 80 81 68 65 64 67 64 63 59 59 62 65
100 84 72 66 64 69 67 69 64 61 60 68 63 78 100 73 55 40 42 84 78 60 64 82 74 91 78 92 88 78 78 84 86 76 72 90 94 66 68 75 77 67 68 67 74 74 67 66 66 62 59 60 61 64
92 80 65 61 66 64 68 65 65 60 61 68 94 96 67 50 67 71 84 84 85 71 66 69 70 83 64 87 90 70 84 80 81 86 82 91 94 83 71 76 72 67 65 66 65 68 66 63 67 67 68 63 64 63
84 71 66 64 69 70 64 58 46 55 58 58 64 54 61 70 82 76 88 76 72 64 67 80 75 70 66 62 84 76 72 81 80 82 84 86 94 82 80 78 78 77 73 71 63 68 68 66 66 71 80 83 86 80
80 70 64 65 66 66 61 50 52 52 58 54 58 63 75 82 86 82 93 80 91 88 83 85 86 78 73 81 92 89 83 91 79 84 89 100 96 98 94 83 83 78 75 73 77 70 69 72 79 87 93 90 84 82
94 78 70 73 59 48 49 51 58 60 61 69 80 90 90 93 93 100 99 99 93 92 92 94 96 94 95 92 94 78 93 90 88 89 94 99 98 98 97 94 92 99 98 89 88 86 91 93 97 96 92 86 84 86
83 77 67 58 51 47 47 53 60 60 62 83 82 95 95 97 98 99 99 98 97 90 91 93 92 89 92 85 80 81 85 81 87 98 100 98 98 97 98 98 97 96 96 96 93 94 97 97 99 100 94 87 79 73
77 64 65 51 52 49 54 55 55 57 67 85 92 91 93 94 95 89 97 98 92 90 91 91 89 90 88 86 86 81 86 95 98 100 99 97 98 97 97 97 96 95 96 98 97 96 98 98 97 100 94 84 75 81
65 69 63 51 48 51 55 54 53 65 86 82 98 100 99 97 98 99 99 100 96 92 96 90 77 75 86 84 81 92 98 98 98 100 98 94 95 97 97 96 97 98 97 97 97 97 97 98 97 95 93 88 82 76
71 58 50 48 56 57 55 54 75 80 94 99 97 99 94 99 99 99 95 94 96 92 91 83 86 76 84 80 98 98 99 99 97 98 98 97 96 97 96 96 97 97 97 97 97 98 97 96 86 82 80 80 79 71
56 53 49 53 54 54 70 67 63 88 97 95 96 96 98 96 92 89 85 93 80 69 85 89 78 92 99 100 99 99 96 95 96 98 97 96 95 97 99 98 98 97 96 96 94 93 92 78 68 68 72 77 83 77
47 52 56 56 55 54 67 79 58 84 94 94 94 94 95 95 94 97 100 89 79 82 83 80 100 95 99 100 98 91 95 90 91 96 97 98 97 95 95 94 93 94 92 89 87 83 79 65 61 64 65 66 68 70
56 58 54 52 48 61 84 86 83 75 88 93 90 90 92 89 88 94 91 82 90 94 98 99 99 99 100 96 78 75 86 82 89 90 88 96 95 90 91 89 90 87 87 88 79 71 63 66 62 56 56 68 71 89
56 53 52 53 72 64 86 72 76 72 86 84 90 85 92 92 82 89 63 64 79 98 98 98 100 97 98 89 87 76 74 75 82 83 83 87 95 92 92 92 85 89 82 76 68 64 71 62 58 78 96 90 82 91
58 53 59 62 82 80 90 76 80 82 86 80 85 81 76 81 77 70 75 63 96 98 87 88 88 86 86 76 78 74 70 74 90 88 88 85 88 82 94 86 78 88 85 68 59 66 72 71 87 94 94 83 72 76
45 83 93 93 83 88 89 86 69 67 72 82 81 78 74 70 67 68 86 98 99 87 87 87 82 88 82 79 94 84 76 79 82 78 80 88 92 92 92 84 81 85 76 66 68 89 89 97 94 95 93 78 74 81
78 87 89 90 87 84 80 80 84 80 86 73 79 89 80 70 83 77 75 100 98 94 96 82 84 94 94 98 95 77 74 73 84 96 86 87 92 97 92 86 92 92 80 81 98 99 99 99 92 94 90 76 75 89
92 90 84 79 86 79 78 81 78 82 84 82 89 89 69 72 68 76 96 94 94 91 96 96 96 97 98 97 96 90 70 82 78 89 87 84 89 90 94 96 97 97 93 90 98 99 99 99 90 91 94 90 90 95
82 84 83 81 85 74 83 86 81 86 79 81 91 77 71 92 87 99 87 95 98 79 85 96 94 98 97 95 84 80 74 82 92 86 87 87 87 83 84 90 92 89 98 98 91 91 95 96 92 92 97 96 94 86
80 79 88 86 81 81 86 85 82 81 80 84 86 80 79 86 98 100 99 87 87 82 84 94 94 95 90 92 88 87 91 93 91 91 93 97 98 96 91 83 84 88 95 96 92 90 91 94 97 95 89 86 88 85
85 89 84 71 74 80 84 87 89 94 97 91 89 91 93 93 98 88 90 92 92 89 88 89 96 97 98 94 90 86 86 92 90 96 96 99 97 98 98 90 89 91 97 98 97 94 89 91 91 92 87 88 89 87
90 88 86 84 80 88 99 96 98 97 93 89 93 90 92 94 94 92 88 91 88 86 84 84 89 91 92 97 99 99 92 94 89 82 95 96 89 95 99 99 100 100 100 98 97 98 98 95 95 92 91 91 90 92
89 74 79 84 86 96 89 88 87 87 88 84 85 88 99 99 98 92 92 95 88 87 86 98 96 87 93 97 96 96 98 97 97 94 95 82 81 92 97 97 95 96 95 93 93 95 96 96 93 92 90 90 91 90
82 79 86 84 97 88 83 81 84 78 72 81 82 89 90 94 84 98 95 96 96 98 97 98 96 93 88 95 91 84 86 89 91 91 96 90 91 94 96 94 94 94 95 95 95 95 94 91 91 84 85 87 87 84
92 93 91 94 96 84 88 82 74 80 88 80 82 95 97 97 97 99 94 94 97 98 98 99 99 99 96 97 98 97 95 89 93 94 92 93 91 93 93 94 93 95 95 95 95 91 86 84 89 90 89 89 91 90

GFSWCAN_925_rhum_114.txt.gz
RH
76 80 84 80 100 91 84 90 97 96 91 88 85 79 80 77 90 98 98 91 88 100 93 92 93 92 92 93 95 98 92 81 77 79 88 94 95 84 80 77 58 62 69 80 78 92 92 77 69 77 89 90 94 95
82 85 86 98 100 88 90 94 99 96 92 88 87 85 91 98 96 100 98 94 99 96 95 96 98 89 80 78 78 73 72 70 78 74 74 79 99 98 83 89 72 77 78 90 93 91 91 86 93 90 84 91 91 93
85 88 92 97 99 95 95 87 97 92 88 87 85 85 97 90 100 93 93 98 100 92 98 97 98 85 76 67 60 67 69 61 67 72 88 82 71 82 90 93 85 83 75 96 90 91 89 91 86 81 81 90 87 85
91 93 97 100 99 98 93 97 99 92 87 85 88 94 96 100 96 86 94 95 99 94 97 92 68 70 75 60 53 44 50 53 63 72 87 90 87 77 87 81 86 78 74 91 96 92 85 88 84 84 84 83 86 84
92 96 100 92 99 99 98 92 96 96 95 94 90 90 99 99 89 89 89 95 100 91 92 73 53 44 42 38 40 42 50 56 68 64 84 89 78 86 84 84 93 80 89 91 91 81 82 91 86 79 87 87 89 90
99 98 97 99 100 100 100 100 97 92 90 90 98 91 80 86 97 97 100 97 92 92 86 90 61 59 48 44 48 49 55 61 65 70 76 77 64 76 95 99 86 88 83 75 94 78 86 86 79 74 81 82 81 83
98 100 100 98 96 97 92 95 95 95 94 88 86 80 86 95 96 94 93 90 89 88 90 84 73 59 52 54 66 63 57 64 60 62 65 73 66 75 95 97 96 91 87 85 82 83 91 82 89 72 74 78 77 76
100 99 91 80 73 72 75 78 81 83 84 86 90 89 97 95 93 87 65 72 71 82 82 92 89 69 54 73 65 69 65 70 68 64 66 66 60 78 96 98 93 88 84 79 77 74 76 72 71 71 68 70 75 78
100 94 79 67 76 78 79 84 88 88 84 93 97 99 98 93 94 63 57 63 70 78 87 84 88 85 70 80 74 67 74 84 72 77 66 69 93 84 90 96 93 88 87 86 74 73 74 74 71 71 71 70 74 74
98 72 70 73 76 73 69 74 78 84 91 99 98 98 100 88 59 45 55 82 75 67 76 83 80 84 78 95 89 77 85 85 84 76 74 90 95 82 78 81 83 83 78 72 85 86 78 79 74 71 68 66 67 69
71 65 70 72 72 69 70 67 80 82 79 85 98 97 74 52 66 72 83 77 86 72 77 79 73 84 70 84 89 76 84 86 84 84 81 94 96 92 85 85 78 74 69 69 72 74 72 70 71 71 71 68 68 63
65 65 68 71 70 70 67 61 61 60 70 70 62 59 64 78 84 74 90 77 71 69 77 79 74 75 78 72 80 87 75 83 84 88 83 94 96 88 87 84 83 78 74 72 66 70 71 69 68 68 68 71 75 74
64 70 66 69 65 57 54 59 60 60 61 56 64 69 74 83 85 75 88 82 89 91 86 88 89 80 78 83 91 86 86 93 86 92 89 86 98 91 86 85 84 80 76 78 80 76 77 81 78 85 93 86 76 74
66 70 71 67 60 54 56 59 59 55 57 74 78 87 81 92 98 96 98 98 94 96 87 92 96 94 98 90 97 87 93 87 95 93 90 94 98 97 88 82 82 93 89 84 87 86 90 94 97 97 96 88 78 80
64 65 55 51 52 55 57 59 56 55 65 83 82 99 99 98 98 99 99 98 98 93 88 91 92 89 95 85 90 86 87 90 88 94 96 93 98 98 97 98 98 97 94 94 91 92 98 97 96 96 96 95 82 75
64 57 54 49 47 46 54 54 52 57 76 88 94 93 98 88 93 97 99 100 96 94 94 91 92 92 91 88 85 88 89 94 94 100 100 98 98 98 98 97 96 96 95 96 96 96 96 96 96 96 96 96 94 67
61 60 52 50 53 52 54 52 52 73 90 88 98 99 100 97 99 99 100 99 95 91 92 90 80 78 90 90 84 91 95 83 99 99 99 95 96 97 97 97 98 97 96 97 97 97 96 96 96 96 94 94 74 65
64 57 49 49 57 55 57 56 78 86 95 98 97 99 92 99 98 98 98 97 94 95 91 82 85 80 93 88 92 98 99 100 99 99 99 98 97 97 96 96 97 97 97 97 97 97 96 96 93 94 92 89 86 79
53 52 53 54 55 54 76 71 71 96 99 99 99 98 98 96 96 93 94 95 90 81 85 89 87 99 95 95 99 99 98 97 98 99 98 98 97 97 98 98 97 97 97 97 96 95 96 95 95 96 89 80 78 80
59 58 56 52 50 62 74 81 66 87 98 97 94 94 96 96 96 99 98 91 83 86 86 93 96 99 90 98 98 94 96 94 93 96 97 98 98 98 98 97 97 98 97 98 98 97 97 87 81 77 78 78 80 91
52 51 51 48 54 68 94 90 85 84 93 94 96 92 92 93 91 90 90 84 89 99 98 95 94 100 100 96 86 91 91 85 92 93 95 97 97 96 99 98 96 94 94 96 95 95 83 77 75 77 75 68 63 74
56 54 50 53 73 75 89 81 83 84 87 91 96 87 93 93 92 92 83 86 96 100 100 99 100 98 98 87 89 73 72 78 81 84 86 92 96 96 98 99 96 98 95 94 88 86 80 72 73 70 71 70 69 84
54 52 64 68 78 81 90 82 86 94 90 92 91 86 92 94 87 74 80 72 99 97 94 94 93 87 88 84 80 79 82 89 91 92 94 92 89 88 93 93 88 93 94 85 74 69 80 79 80 77 85 96 100 99
46 82 92 92 83 93 88 87 74 71 80 91 90 86 77 75 66 80 94 97 99 95 91 90 87 90 86 82 91 92 88 84 92 92 90 94 96 99 94 91 87 82 80 75 66 83 90 99 90 93 95 97 98 98
60 76 82 86 89 84 87 87 90 81 94 85 85 98 82 78 92 83 84 94 99 81 77 84 92 92 94 97 98 84 82 78 87 94 92 91 91 100 98 90 84 84 78 72 98 96 100 100 98 94 90 88 94 98
97 88 79 87 90 82 86 86 87 88 91 91 98 88 68 73 76 81 97 97 98 96 93 94 94 97 99 96 95 92 79 72 77 94 92 89 91 91 94 97 97 98 91 67 90 100 100 99 97 96 94 86 87 93
89 89 90 93 92 80 87 90 85 87 88 92 98 83 94 97 96 96 96 94 98 77 87 88 90 92 97 98 91 82 84 85 83 84 89 88 85 80 78 90 96 86 95 86 86 88 95 96 97 96 96 93 88 87
88 91 87 88 85 93 94 94 88 86 87 92 86 90 87 92 97 99 99 86 79 81 86 98 98 93 92 89 86 87 96 96 96 96 97 98 97 92 86 79 79 84 92 94 91 93 92 93 95 94 95 96 95 92
90 94 83 77 81 83 91 94 94 98 96 96 91 96 100 98 100 98 94 92 91 84 85 88 100 96 95 93 91 86 92 96 92 97 100 100 98 99 97 87 84 94 100 100 98 96 95 94 94 94 94 94 94 94
93 94 92 91 91 94 91 94 99 97 90 89 98 96 98 94 96 89 88 89 88 85 84 82 87 91 96 97 100 98 96 94 87 80 95 96 86 97 98 99 100 100 100 98 97 97 97 96 96 97 96 96 94 94
92 90 88 92 88 98 96 84 84 86 83 84 91 94 99 99 99 98 96 96 96 92 94 98 94 89 87 89 89 91 97 90 94 94 93 89 78 92 98 99 100 100 100 95 92 92 96 96 96 95 94 92 93 92
80 70 92 89 96 98 88 80 76 81 92 84 89 82 95 96 85 97 95 95 97 98 99 98 97 94 90 91 88 84 85 82 93 92 90 94 87 92 97 99 99 99 98 96 95 95 95 93 95 94 91 91 92 88
96 97 97 96 98 94 94 88 89 79 92 86 81 97 91 84 83 97 94 96 96 97 97 98 98 94 97 94 94 96 94 92 86 88 89 94 86 91 95 95 96 97 96 96 96 96 96 95 94 91 87 84 83 82

GFSWCAN_925_rhum_117.txt.gz
RH
80 78 78 85 87 92 89 99 98 91 85 86 89 88 86 86 81 94 86 78 93 100 94 84 80 94 93 92 97 92 96 99 99 97 93 96 92 78 75 78 70 74 88 90 73 87 83 74 66 74 86 96 92 95
78 78 83 85 87 100 100 90 97 98 96 93 88 90 85 80 76 96 94 89 98 98 90 89 88 90 95 88 88 93 82 90 92 94 82 92 98 97 83 91 68 77 78 81 80 83 92 91 95 92 84 93 96 97
84 83 85 89 89 95 96 98 97 96 98 93 90 87 83 77 77 96 98 100 98 98 95 98 98 91 91 92 68 80 80 66 75 75 89 84 84 90 94 95 91 84 74 93 88 94 96 98 90 86 86 92 93 91
84 86 89 90 96 98 99 99 99 99 92 86 83 84 84 81 89 100 98 98 98 98 98 96 84 97 91 83 78 62 53 60 70 76 90 93 94 78 86 84 86 78 74 90 96 94 91 90 92 90 93 87 87 86
90 93 92 95 100 100 100 100 98 98 96 92 82 88 92 94 98 99 98 98 98 94 93 99 87 94 76 75 59 55 58 62 70 68 87 91 87 85 89 84 95 79 91 91 88 81 82 89 92 86 91 90 87 89
96 96 99 99 98 99 98 100 100 99 97 99 95 96 92 100 99 97 100 95 94 100 90 96 67 73 59 57 59 55 61 69 71 77 84 81 67 83 96 97 89 88 79 71 87 78 86 90 85 78 86 86 85 84
99 98 100 100 99 94 93 96 98 98 94 89 91 94 99 96 83 94 93 84 83 100 91 85 75 62 57 61 69 67 65 74 61 67 72 78 72 78 94 93 94 93 90 88 86 86 94 88 93 76 80 81 80 87
100 100 97 100 100 100 100 98 96 92 90 92 96 97 88 84 85 87 79 86 86 86 86 93 87 72 56 73 69 75 70 69 75 69 71 66 66 81 95 94 97 92 90 84 80 76 79 78 71 76 80 83 86 88
95 77 76 82 94 98 99 100 100 99 98 92 93 93 98 97 96 84 74 78 78 84 91 84 86 89 71 84 78 71 75 84 74 78 68 73 94 85 85 89 96 88 85 88 82 79 80 80 79 83 85 83 85 85
77 75 81 84 87 82 90 91 91 93 98 99 97 98 100 94 75 77 65 86 83 76 82 87 82 87 78 96 90 78 86 86 82 81 76 92 96 88 87 88 84 85 85 80 92 93 86 86 84 81 82 76 75 77
75 81 83 77 83 91 93 96 98 98 98 90 97 99 91 75 73 74 87 76 87 75 82 85 80 88 75 83 91 79 87 88 86 85 78 95 96 94 90 91 86 85 78 77 77 76 76 77 79 79 77 73 74 76
76 78 77 77 82 90 98 97 92 89 82 76 68 68 68 80 82 72 90 80 72 73 83 80 75 78 84 72 82 89 77 85 83 90 83 92 93 92 91 87 84 85 83 79 76 83 81 75 72 72 73 74 74 74
74 77 74 67 65 64 65 68 83 72 64 60 68 70 74 81 83 73 86 82 89 94 89 90 92 87 76 83 91 86 86 93 86 90 89 88 91 90 85 85 86 84 81 81 83 76 76 76 72 74 84 84 79 80
77 67 66 61 61 58 61 67 67 62 60 76 78 92 84 93 91 90 92 96 95 97 90 93 97 94 98 91 97 88 94 86 97 97 91 89 95 91 88 83 86 92 88 88 89 87 87 87 94 92 94 84 79 85
71 61 61 66 58 59 61 74 64 61 69 85 82 99 97 98 98 99 98 99 99 95 89 91 93 90 94 86 93 87 89 95 90 90 96 99 97 93 93 94 96 95 94 94 90 91 95 97 96 97 96 92 87 82
52 51 60 57 54 52 47 44 52 58 82 90 89 92 97 94 98 99 99 100 97 97 95 91 93 91 93 90 86 89 86 93 92 98 99 98 98 98 98 97 96 96 94 96 95 96 97 97 96 96 96 96 96 95
51 58 51 51 50 48 49 49 56 85 93 88 98 99 100 98 99 99 98 97 95 89 93 89 82 81 91 92 88 83 97 94 99 99 99 97 98 98 98 97 98 97 97 97 97 97 96 96 96 96 95 96 96 95
56 51 55 56 51 50 57 56 83 87 94 98 97 99 98 98 98 99 97 97 93 95 92 82 85 84 98 92 87 89 99 100 99 99 99 98 98 97 97 96 98 97 98 98 96 97 96 96 95 95 96 97 96 89
52 53 55 52 50 54 77 73 77 96 98 99 98 98 98 98 96 98 98 96 90 84 86 89 95 94 88 85 99 97 98 97 98 98 98 98 97 97 98 97 97 97 97 97 97 96 96 96 96 96 97 97 90 82
57 56 54 50 48 65 74 82 71 88 99 97 95 94 96 96 98 98 93 90 83 88 94 96 93 99 89 98 99 96 94 94 93 96 98 98 98 97 97 97 98 98 97 97 98 97 97 97 96 97 97 96 91 87
46 50 49 49 57 70 93 88 86 90 94 95 96 95 94 92 91 92 89 83 92 99 99 91 92 99 99 98 88 88 92 87 91 94 96 99 99 96 98 98 98 98 94 96 94 96 96 95 97 96 95 96 80 81
57 53 50 55 78 80 92 90 88 89 92 98 94 91 97 94 96 93 87 88 100 100 99 99 99 99 96 90 91 72 74 77 81 86 86 94 100 97 98 98 98 99 98 97 95 96 96 95 96 93 84 71 65 69
51 49 64 63 78 81 92 84 91 90 90 92 95 89 95 96 92 77 88 90 99 98 97 97 95 99 95 87 82 82 81 83 90 91 95 93 91 88 93 97 92 96 100 97 88 90 90 82 81 80 71 75 88 90
53 79 92 91 83 94 87 88 75 73 84 95 93 87 88 90 74 89 95 97 100 98 92 93 90 92 91 88 92 95 89 87 93 93 90 94 98 98 90 92 91 86 83 86 86 82 85 87 79 83 93 100 100 100
62 80 82 88 88 85 90 91 91 82 92 89 94 97 90 88 92 91 87 95 100 76 88 86 94 87 93 97 98 91 86 78 89 94 91 86 90 98 99 96 91 84 84 84 91 96 100 93 88 91 98 97 97 96
70 84 78 91 91 83 88 89 92 92 94 98 99 89 80 76 88 85 98 99 97 96 94 92 94 97 99 97 95 94 84 81 76 87 89 88 89 92 96 98 99 100 90 78 79 98 100 96 92 94 99 97 96 95
91 91 91 92 94 81 89 92 85 90 94 97 98 85 98 98 97 90 97 94 92 83 78 84 86 90 94 98 92 90 93 89 81 81 82 90 92 92 90 91 96 83 92 88 71 79 91 96 97 97 96 96 95 94
88 91 76 84 90 94 96 96 92 87 90 94 87 94 92 91 94 97 99 84 77 80 87 99 96 95 94 95 93 94 96 96 95 97 98 98 96 95 92 86 81 86 88 90 78 79 83 87 94 95 95 94 94 95
90 95 84 87 91 91 96 96 97 92 93 94 89 97 94 99 99 98 96 86 85 82 80 90 100 96 95 94 93 88 86 96 96 98 100 100 100 98 95 91 86 90 94 97 96 92 92 94 95 94 95 95 94 95
94 95 94 97 93 92 97 98 98 98 97 98 96 97 98 98 99 97 95 92 91 84 85 84 83 86 96 94 96 99 87 96 97 90 97 97 92 88 98 97 98 100 100 98 97 97 97 97 97 96 96 96 96 96
96 94 92 95 90 97 98 97 98 96 94 97 97 97 98 98 98 98 96 94 92 92 98 96 92 88 88 89 87 85 91 88 89 93 91 92 80 86 100 100 100 100 100 97 95 95 96 97 96 96 96 96 96 96
88 78 96 94 91 98 97 95 78 88 98 94 98 96 98 98 91 98 96 94 96 99 99 98 97 95 89 87 87 87 84 82 81 84 90 95 98 89 96 100 100 100 100 97 95 96 96 94 95 96 95 96 97 95
100 99 98 97 98 95 97 93 99 95 98 96 91 98 96 92 85 95 97 98 96 96 96 96 97 97 96 96 96 97 97 92 83 85 90 93 96 90 95 100 100 99 98 97 96 96 96 96 96 96 96 95 94 94

GFSWCAN_925_rhum_123.txt.gz
RH
82 74 81 82 82 83 85 86 88 92 93 82 91 93 82 79 92 87 86 83 81 98 87 88 84 89 87 86 86 82 94 97 99 96 80 83 92 73 83 82 78 77 86 85 88 88 84 62 60 60 74 88 82 85
88 86 83 83 83 84 88 89 95 86 92 93 94 84 78 83 81 86 82 79 85 90 88 88 85 82 80 78 79 89 80 95 90 84 86 81 96 91 80 88 65 86 82 85 72 74 83 82 83 82 76 81 88 84
83 82 84 86 86 85 84 86 93 97 98 94 95 95 91 79 79 90 78 83 98 88 88 94 83 65 72 76 81 98 91 73 89 83 92 92 94 79 87 85 73 70 69 72 72 77 79 85 81 75 75 80 84 80
81 84 84 84 84 84 84 88 90 100 100 99 92 92 94 95 78 90 89 84 73 89 96 83 82 82 67 69 83 86 80 73 76 83 100 95 93 81 84 78 89 64 66 72 78 89 88 84 77 76 82 80 84 81
79 81 82 81 83 87 86 85 88 94 90 88 96 85 90 93 94 90 94 82 72 86 97 90 88 83 81 86 98 97 92 88 92 99 100 95 100 99 96 95 82 72 82 74 66 64 65 76 82 78 84 86 84 83
80 80 81 82 88 93 83 89 92 99 98 99 94 87 86 90 90 98 100 90 82 82 99 96 88 92 95 98 95 94 91 91 98 100 98 98 76 79 85 85 77 83 72 71 78 76 84 87 80 73 81 82 77 77
83 87 91 94 96 95 89 89 86 99 97 98 99 91 92 91 97 87 90 77 71 98 100 98 97 99 98 95 97 97 98 98 96 100 94 81 79 77 89 87 90 88 84 85 82 80 96 83 88 76 74 75 78 77
97 99 99 99 99 100 99 99 99 98 100 93 83 86 90 91 98 85 89 93 100 98 100 97 94 99 99 100 100 85 98 94 86 68 74 69 72 80 88 91 92 89 86 80 78 74 74 78 76 76 75 77 79 80
100 100 100 90 95 100 98 100 100 100 98 93 86 90 92 96 99 91 82 99 99 99 98 90 96 97 98 94 88 80 76 84 75 73 68 66 80 75 76 88 93 86 80 86 82 80 79 79 79 81 77 75 77 81
97 91 96 95 95 99 100 99 99 98 100 99 97 98 100 100 98 99 100 100 100 100 97 78 77 93 83 88 84 80 77 75 75 78 73 81 80 85 88 80 80 78 80 77 88 93 84 85 83 83 78 72 71 74
100 98 94 94 92 91 90 92 95 100 100 99 100 100 100 100 97 100 97 96 94 84 86 81 81 82 77 78 81 78 79 81 74 81 72 81 82 90 87 83 78 79 76 75 71 71 71 73 80 81 79 74 75 78
99 99 100 100 100 99 98 100 99 94 88 82 96 99 99 99 91 74 83 80 76 74 88 83 78 79 81 74 79 79 73 78 78 83 76 80 82 91 88 85 87 82 79 77 76 77 77 76 77 77 78 81 85 86
93 98 97 97 99 99 96 92 83 73 78 74 73 81 87 77 78 73 87 80 90 89 89 89 88 85 73 76 84 77 79 87 83 85 79 82 89 90 87 85 87 82 80 82 85 83 81 82 82 82 86 92 95 96
64 78 82 92 97 98 97 85 69 67 59 78 76 92 86 94 89 93 92 92 92 97 91 89 89 84 88 88 91 82 94 84 90 88 78 87 90 90 86 84 84 91 91 89 91 89 90 91 97 98 97 97 96 96
59 69 76 79 90 80 77 65 53 52 73 85 79 99 94 96 96 91 98 98 97 92 88 84 85 80 86 87 89 87 88 89 85 84 88 86 91 93 94 92 94 94 94 95 92 93 96 97 96 98 98 97 96 96
57 62 70 69 76 71 57 52 57 63 84 88 89 92 94 96 98 98 98 98 94 91 88 83 82 87 90 84 77 81 78 78 83 92 93 96 96 93 94 93 93 93 92 95 93 95 97 97 96 98 100 97 97 96
50 63 64 58 54 56 55 56 64 84 89 87 98 97 97 97 98 99 99 94 92 86 86 80 84 91 84 86 92 82 93 92 96 99 98 97 95 96 95 96 95 94 95 95 96 97 99 98 97 98 94 98 98 97
58 60 54 46 44 47 59 66 84 84 95 98 96 98 97 98 97 96 94 94 90 86 83 80 82 90 96 94 80 91 96 99 98 98 98 97 97 97 95 95 95 94 95 99 98 100 99 98 93 90 94 98 98 97
62 56 48 43 46 53 76 78 79 96 100 97 96 96 98 97 96 94 92 89 84 80 84 84 87 84 85 93 94 94 96 93 94 95 95 97 97 97 98 99 98 97 97 96 95 92 94 95 93 95 95 96 92 96
49 48 47 47 46 65 75 85 75 86 98 95 93 91 92 94 92 89 88 88 87 84 86 88 88 96 93 97 97 93 92 90 90 92 94 94 96 97 96 95 93 97 96 98 98 97 96 97 99 99 98 96 95 96
44 46 45 46 57 71 90 89 86 91 91 94 96 90 88 84 87 89 88 85 91 91 96 92 98 100 97 94 87 90 90 83 86 84 86 92 95 93 95 98 98 96 91 92 90 94 95 91 97 100 99 99 100 98
47 53 48 56 77 77 92 93 88 90 91 94 92 87 93 95 91 86 86 95 90 95 86 95 96 92 87 80 84 73 75 77 83 91 90 93 96 93 93 96 95 95 94 95 92 93 95 99 100 100 100 100 97 98
45 52 58 64 78 82 93 86 88 83 85 92 90 87 94 93 87 78 90 95 93 97 93 90 97 98 92 88 81 82 78 78 84 87 94 94 94 92 95 98 95 96 94 98 98 99 100 100 100 100 99 98 99 98
54 75 93 92 84 93 86 92 77 82 87 92 87 87 89 92 82 87 90 93 98 95 95 98 94 95 96 95 94 95 93 84 91 92 88 92 91 95 94 95 95 91 88 93 100 100 100 100 100 100 100 100 99 97
63 76 84 93 88 88 94 98 94 84 99 96 98 87 75 88 93 94 88 94 97 97 96 92 89 90 92 96 96 98 92 84 86 85 93 84 92 99 99 99 97 92 90 96 100 100 100 100 100 100 100 99 98 100
60 85 74 90 93 85 90 95 100 97 95 99 97 91 89 91 93 89 85 95 92 92 93 90 90 91 88 90 92 95 94 85 80 87 87 86 84 90 93 98 98 100 98 88 91 100 100 100 100 100 99 97 96 99
67 90 93 90 96 84 91 93 86 93 96 97 96 94 94 98 95 83 95 94 92 97 90 75 75 88 91 97 98 97 95 91 86 85 86 87 85 83 86 90 95 85 88 92 88 88 93 97 100 99 99 99 93 84
84 89 91 89 97 93 95 97 95 90 92 89 88 96 97 96 89 94 96 94 88 78 87 96 97 94 94 96 97 99 99 99 98 99 100 99 98 99 99 100 96 92 87 86 86 83 80 81 87 96 96 98 97 86
96 96 86 98 96 99 97 96 96 87 94 90 93 93 89 91 96 96 93 86 83 95 98 98 99 99 98 98 96 95 96 97 94 97 97 96 98 99 99 95 88 89 94 91 91 83 75 75 78 81 87 92 93 95
98 95 93 100 93 93 93 96 96 96 97 96 96 97 96 97 98 98 92 89 89 88 82 90 95 94 97 94 98 95 84 87 95 92 95 96 91 86 99 98 92 98 100 98 98 98 95 95 96 96 96 96 96 95
93 94 95 97 95 97 95 98 97 98 97 97 97 96 94 96 98 97 97 93 88 84 87 94 93 80 84 86 88 89 92 83 87 85 87 87 82 86 100 100 100 100 100 99 97 94 94 97 96 96 96 96 96 95
99 90 96 91 87 96 97 97 96 96 96 96 95 97 97 97 97 94 97 99 100 99 97 95 96 94 84 84 85 82 80 83 85 89 88 93 96 92 100 100 100 100 100 98 97 96 96 95 96 97 97 97 96 96
97 98 99 100 99 84 96 95 95 96 95 99 99 99 96 94 91 88 98 99 97 92 94 94 96 93 90 89 91 94 96 96 84 86 90 94 100 99 100 100 99 100 99 99 98 97 96 96 96 96 96 96 96 96